When you browse on this site, cookies collect data to enhance your experience and personalize the content and advertising you see.
Visit our Privacy Policy to learn more. By continuing to use the site, you agree to this use of cookies and data.
  • în România
  • Lista ţărilor
  • Pe 7 zile
  • Temperatura apei
  • Meteo pe hartă
  • Widget-uri
  • user-avatar
    Intrare

    Meteo pe oră la Bilbao

    Astăzi, 22 Noiembrie, Vineri

    Timp Temperatura Precipitaţii Vânt Presiune Umiditate
    00:00 +7°C° 0 mm 5 m/s 743 mmHg 74%
    01:00 +7°C° 0 mm 5 m/s 742 mmHg 75%
    02:00 +7°C° 0 mm 5 m/s 742 mmHg 76%
    03:00 +7°C° 0 mm 5 m/s 741 mmHg 77%
    04:00 +7°C° 0 mm 4 m/s 740 mmHg 76%
    05:00 +8°C° 0 mm 4 m/s 740 mmHg 76%
    06:00 +8°C° 0 mm 4 m/s 739 mmHg 76%
    07:00 +8°C° 0.2 mm 5 m/s 738 mmHg 77%
    08:00 +9°C° 0.2 mm 6 m/s 737 mmHg 78%
    09:00 +9°C° 0.2 mm 6 m/s 736 mmHg 79%
    10:00 +10°C° 0 mm 7 m/s 735 mmHg 76%
    11:00 +11°C° 0 mm 7 m/s 734 mmHg 73%
    12:00 +12°C° 0 mm 7 m/s 733 mmHg 70%
    13:00 +12°C° 0 mm 7 m/s 732 mmHg 72%
    14:00 +12°C° 0 mm 7 m/s 731 mmHg 74%
    15:00 +13°C° 0 mm 6 m/s 730 mmHg 77%
    16:00 +11°C° 0.1 mm 6 m/s 730 mmHg 78%
    17:00 +11°C° 0.1 mm 6 m/s 730 mmHg 80%
    18:00 +10°C° 0.1 mm 6 m/s 730 mmHg 81%
    19:00 +11°C° 0 mm 6 m/s 730 mmHg 79%
    20:00 +11°C° 0 mm 6 m/s 730 mmHg 76%
    21:00 +11°C° 0 mm 7 m/s 729 mmHg 74%
    22:00 +10°C° 0.2 mm 6 m/s 729 mmHg 77%
    23:00 +10°C° 0.2 mm 6 m/s 729 mmHg 79%

    Mâine, 23 Noiembrie, Sâmbătă

    Timp Temperatura Precipitaţii Vânt Presiune Umiditate
    00:00 +10°C° 0.2 mm 5 m/s 729 mmHg 82%
    01:00 +10°C° 0.6 mm 6 m/s 729 mmHg 83%
    02:00 +10°C° 0.6 mm 7 m/s 730 mmHg 84%
    03:00 +10°C° 0.6 mm 7 m/s 730 mmHg 85%
    04:00 +9°C° 2.2 mm 8 m/s 731 mmHg 87%
    05:00 +8°C° 2.2 mm 9 m/s 732 mmHg 88%
    06:00 +8°C° 2.2 mm 10 m/s 734 mmHg 90%
    07:00 +8°C° 0.3 mm 10 m/s 735 mmHg 87%
    08:00 +8°C° 0.3 mm 10 m/s 736 mmHg 84%
    09:00 +8°C° 0.3 mm 10 m/s 738 mmHg 81%
    10:00 +8°C° 0.1 mm 9 m/s 738 mmHg 80%
    11:00 +10°C° 0.1 mm 9 m/s 739 mmHg 79%
    12:00 +10°C° 0.1 mm 8 m/s 740 mmHg 78%
    13:00 +10°C° 0.4 mm 8 m/s 740 mmHg 79%
    14:00 +10°C° 0.4 mm 8 m/s 741 mmHg 80%
    15:00 +9°C° 0.4 mm 7 m/s 741 mmHg 82%
    16:00 +9°C° 0.7 mm 7 m/s 742 mmHg 84%
    17:00 +9°C° 0.7 mm 7 m/s 743 mmHg 86%
    18:00 +9°C° 0.7 mm 6 m/s 744 mmHg 87%
    19:00 +9°C° 0.4 mm 6 m/s 745 mmHg 88%
    20:00 +9°C° 0.4 mm 6 m/s 746 mmHg 89%
    21:00 +9°C° 0.4 mm 6 m/s 746 mmHg 90%
    22:00 +9°C° 0.3 mm 5 m/s 747 mmHg 90%
    23:00 +9°C° 0.3 mm 5 m/s 747 mmHg 90%

    Poimâine, 24 Noiembrie, Duminică

    Timp Temperatura Precipitaţii Vânt Presiune Umiditate
    00:00 +9°C° 0.3 mm 5 m/s 748 mmHg 90%
    01:00 +9°C° 0.3 mm 5 m/s 748 mmHg 89%
    02:00 +10°C° 0.3 mm 4 m/s 749 mmHg 89%
    03:00 +8°C° 0.3 mm 4 m/s 749 mmHg 88%
    04:00 +8°C° 0.2 mm 4 m/s 750 mmHg 88%
    05:00 +8°C° 0.2 mm 3 m/s 750 mmHg 88%
    06:00 +8°C° 0.2 mm 3 m/s 750 mmHg 89%
    07:00 +8°C° 0.1 mm 3 m/s 751 mmHg 87%
    08:00 +9°C° 0.1 mm 3 m/s 751 mmHg 86%
    09:00 +9°C° 0.1 mm 3 m/s 751 mmHg 85%
    10:00 +10°C° 0 mm 3 m/s 751 mmHg 81%
    11:00 +11°C° 0 mm 3 m/s 751 mmHg 76%
    12:00 +13°C° 0 mm 2 m/s 751 mmHg 72%
    13:00 +12°C° 0 mm 3 m/s 750 mmHg 70%
    14:00 +12°C° 0 mm 3 m/s 750 mmHg 68%
    15:00 +12°C° 0 mm 4 m/s 750 mmHg 66%
    16:00 +11°C° 0 mm 4 m/s 750 mmHg 69%
    17:00 +10°C° 0 mm 4 m/s 749 mmHg 73%
    18:00 +8°C° 0 mm 4 m/s 749 mmHg 77%
    19:00 +10°C° 0 mm 4 m/s 749 mmHg 76%
    20:00 +10°C° 0 mm 5 m/s 749 mmHg 76%
    21:00 +12°C° 0 mm 5 m/s 749 mmHg 75%
    22:00 +12°C° 0 mm 5 m/s 749 mmHg 77%
    23:00 +12°C° 0 mm 5 m/s 749 mmHg 78%

    25 Noiembrie, Luni

    Timp Temperatura Precipitaţii Vânt Presiune Umiditate
    00:00 +12°C° 0 mm 5 m/s 749 mmHg 80%
    01:00 +12°C° 0 mm 4 m/s 749 mmHg 80%
    02:00 +12°C° 0 mm 4 m/s 749 mmHg 81%
    03:00 +12°C° 0 mm 4 m/s 748 mmHg 82%
    04:00 +12°C° 0 mm 3 m/s 749 mmHg 84%
    05:00 +12°C° 0 mm 3 m/s 749 mmHg 85%
    06:00 +13°C° 0 mm 2 m/s 749 mmHg 86%
    07:00 +14°C° 0 mm 2 m/s 749 mmHg 86%
    08:00 +14°C° 0 mm 2 m/s 750 mmHg 85%
    09:00 +14°C° 0 mm 2 m/s 750 mmHg 84%
    10:00 +15°C° 0 mm 2 m/s 750 mmHg 79%
    11:00 +17°C° 0 mm 2 m/s 750 mmHg 73%
    12:00 +18°C° 0 mm 2 m/s 750 mmHg 68%
    13:00 +17°C° 0 mm 2 m/s 750 mmHg 72%
    14:00 +17°C° 0 mm 2 m/s 750 mmHg 76%
    15:00 +16°C° 0 mm 2 m/s 750 mmHg 80%
    16:00 +15°C° 0 mm 2 m/s 751 mmHg 85%
    17:00 +14°C° 0 mm 1 m/s 751 mmHg 89%
    18:00 +13°C° 0 mm 1 m/s 751 mmHg 94%
    19:00 +13°C° 0.1 mm 1 m/s 752 mmHg 94%
    20:00 +13°C° 0.1 mm 1 m/s 752 mmHg 94%
    21:00 +13°C° 0.1 mm 1 m/s 752 mmHg 94%
    22:00 +13°C° 0.1 mm 1 m/s 752 mmHg 94%
    23:00 +12°C° 0.1 mm 1 m/s 752 mmHg 93%

    26 Noiembrie, Marţi

    Timp Temperatura Precipitaţii Vânt Presiune Umiditate
    00:00 +12°C° 0.1 mm 1 m/s 752 mmHg 93%
    01:00 +10°C° 0 mm 2 m/s 752 mmHg 92%
    02:00 +10°C° 0 mm 2 m/s 751 mmHg 91%
    03:00 +9°C° 0 mm 2 m/s 751 mmHg 90%
    04:00 +10°C° 0 mm 3 m/s 751 mmHg 89%
    05:00 +10°C° 0 mm 3 m/s 750 mmHg 88%
    06:00 +10°C° 0 mm 3 m/s 750 mmHg 86%
    07:00 +11°C° 0 mm 4 m/s 749 mmHg 83%
    08:00 +12°C° 0 mm 4 m/s 749 mmHg 80%
    09:00 +12°C° 0 mm 5 m/s 749 mmHg 77%
    10:00 +14°C° 0 mm 6 m/s 748 mmHg 72%
    11:00 +15°C° 0 mm 7 m/s 747 mmHg 66%
    12:00 +17°C° 0 mm 8 m/s 746 mmHg 61%
    13:00 +17°C° 0 mm 8 m/s 746 mmHg 62%
    14:00 +17°C° 0 mm 8 m/s 745 mmHg 64%
    15:00 +17°C° 0 mm 8 m/s 745 mmHg 65%
    16:00 +16°C° 0.1 mm 6 m/s 745 mmHg 72%
    17:00 +15°C° 0.1 mm 5 m/s 746 mmHg 79%
    18:00 +14°C° 0.1 mm 4 m/s 746 mmHg 86%
    19:00 +13°C° 0.1 mm 3 m/s 747 mmHg 88%
    20:00 +13°C° 0.1 mm 3 m/s 747 mmHg 90%
    21:00 +14°C° 0.1 mm 2 m/s 747 mmHg 92%
    22:00 +13°C° 0 mm 2 m/s 747 mmHg 90%
    23:00 +13°C° 0 mm 2 m/s 747 mmHg 89%

    27 Noiembrie, Miercuri

    Timp Temperatura Precipitaţii Vânt Presiune Umiditate
    00:00 +13°C° 0 mm 2 m/s 747 mmHg 88%
    01:00 +12°C° 0 mm 2 m/s 748 mmHg 87%
    02:00 +12°C° 0 mm 2 m/s 748 mmHg 87%
    03:00 +11°C° 0 mm 3 m/s 748 mmHg 86%
    04:00 +10°C° 0 mm 3 m/s 748 mmHg 86%
    05:00 +10°C° 0 mm 2 m/s 748 mmHg 86%
    06:00 +9°C° 0 mm 2 m/s 748 mmHg 87%
    07:00 +10°C° 0 mm 2 m/s 749 mmHg 83%
    08:00 +10°C° 0 mm 3 m/s 749 mmHg 79%
    09:00 +10°C° 0 mm 3 m/s 749 mmHg 75%
    10:00 +12°C° 0 mm 3 m/s 749 mmHg 70%
    11:00 +13°C° 0 mm 3 m/s 749 mmHg 65%
    12:00 +14°C° 0 mm 3 m/s 749 mmHg 59%
    13:00 +15°C° 0 mm 2 m/s 749 mmHg 60%
    14:00 +15°C° 0 mm 2 m/s 749 mmHg 61%
    15:00 +15°C° 0 mm 1 m/s 749 mmHg 62%
    16:00 +14°C° 0 mm 1 m/s 749 mmHg 64%
    17:00 +14°C° 0 mm 1 m/s 749 mmHg 66%
    18:00 +13°C° 0 mm 2 m/s 750 mmHg 68%
    19:00 +12°C° 0 mm 1 m/s 750 mmHg 70%
    20:00 +12°C° 0 mm 1 m/s 750 mmHg 73%
    21:00 +11°C° 0 mm 1 m/s 750 mmHg 75%
    22:00 +10°C° 0 mm 2 m/s 750 mmHg 77%
    23:00 +10°C° 0 mm 2 m/s 750 mmHg 78%
    Arată mai mult